Regional Weather Roundup
Issued by NWS

Home | Current Version | Previous Version | Text Only | Print | Product List | Glossary Off
Versions: 1 2 3 4 5 6 7 8 9 10 11 12 13 14 15 16 17 18 19 20 21 22 23 24 25 26 27 28 29 30 31 32 33 34 35 36 37 38 39 40 41 42 43 44 45 46 47 48 49 50

000
ASUS45 KBOU 300307
RWRCO

WEATHER ROUNDUP FOR COLORADO
NATIONAL WEATHER SERVICE DENVER/BOULDER CO
900 PM MDT FRI MAY 29 2015

NOTE: "FAIR" INDICATES FEW OR NO CLOUDS BELOW 12000 FEET WITH NO
SIGNIFICANT WEATHER AND/OR OBSTRUCTIONS TO VISIBILITY.

COZ001>005-013-030-031-300400-
...NORTHWEST COLORADO...

CITY           SKY/WX    TMP DP  RH WIND       PRES   REMARKS
CRAIG          CLEAR     51  42  71 SE5       30.28R
HAYDEN         CLEAR     48  37  66 SE9       30.29S
MEEKER         CLEAR     54  41  61 NE3       30.27R
MOUNT WERNER   NOT AVBL
STEAMBOAT SPGS CLEAR     51  39  63 CALM      30.31S
WALDEN         CLEAR     43  34  70 CALM      30.37R
$$

COZ006>008-011-300400-
...WEST CENTRAL VALLEYS...

CITY           SKY/WX    TMP DP  RH WIND       PRES   REMARKS
GRAND JUNCTION PTCLDY    64  42  44 NE7       30.14S
MONTROSE       CLEAR     62  35  36 NW3       30.21S
EAGLE          CLEAR     61  48  63 E8        30.32R
RIFLE          CLEAR     61  39  44 CALM      30.21R
DELTA          CLEAR     67  36  31 CALM      30.17R
NUCLA          CLEAR     64  32  29 NE8       30.23R
$$

COZ017>023-064>068-300400-
...SOUTHWEST COLORADO...

CITY           SKY/WX    TMP DP  RH WIND       PRES   REMARKS
DURANGO        CLEAR     61  24  24 NW12      30.20R
CORTEZ         CLEAR     61  23  23 CALM      30.18R
PAGOSA SPRINGS CLEAR     54  32  43 NE8       30.26S
TELLURIDE      CLEAR     50  32  48 CALM      30.38S
WOLF CREEK PAS NOT AVBL
$$

COZ009-010-012-014-032>034-037-058>063-300400-
...CENTRAL COLORADO...

CITY           SKY/WX    TMP DP  RH WIND       PRES   REMARKS
ASPEN          MOCLDY    51  37  58 SE12      30.32R
BUENA VISTA    MOCLDY    52  32  46 N17G25    30.32R
COPPER MTN     MOCLDY    34  28  80 W8        30.51S WCI  27
BERTHOUD PASS  HAZE      27  19  74 NW10      30.52F VSB<1/4 WCI  17
COTTONWOOD PAS MOCLDY    50  27  40 W3        30.41R
GUNNISON       PTCLDY    54  30  40 N5        30.32R
KREMMLING      MOCLDY    50  37  62 E6        30.35R
LEADVILLE      MOCLDY    38  32  79 N10       30.43R
MONARCH PASS   MOCLDY    36  27  69 NE7       30.61R
SALIDA         CLOUDY    57  41  54 E15G31    30.37R
SUNLIGHT       PTCLDY    43  32  65 CALM      30.50R
WILKERSON PASS TSTM      34  32  93 NE8       30.51R VSB<1/4 WCI  27
$$

COZ069>075-300400-
...SAN LUIS VALLEY/SANGRE DE CRISTO MOUNTAINS...

CITY           SKY/WX    TMP DP  RH WIND       PRES   REMARKS
ALAMOSA        MOCLDY    58  28  32 N17G24    30.25S
LA VETA PASS   MOCLDY   N/A N/A N/A MISG      30.43S THUNDER
SAGUACHE       PTCLDY    54  32  43 N9        30.29R
$$

COZ035-036-038>040-300400-
...NORTHERN COLORADO FRONT RANGE...

CITY           SKY/WX    TMP DP  RH WIND       PRES   REMARKS
DENVER INTL AP CLOUDY    52  46  80 NE8       30.33R
DMNS CITY PARK   N/A     53  46  78 NE9G16    30.33R
AURORA         MOCLDY    51  46  83 N10       30.34R
FRONT RANGE AP MOCLDY    54  46  76 NE7       30.33R
ERIE MUNI ARPT CLOUDY    54  49  85 N7        30.32S
BOULDER MUN AP CLOUDY    54  48  82 NE7       30.32S
CENTENNIAL     CLOUDY    52  46  80 N12       30.33R
BROOMFIELD     NOT AVBL
FORT COLLINS   CLOUDY    52  46  82 NE8       30.33R
LONGMONT       CLOUDY    54  49  82 E7        30.34R
$$

COZ041-046-047-076>085-087-088-300400-
...PIKES PEAK/PALMER DIVIDE AND SOUTHERN FOOTHILLS...

CITY           SKY/WX    TMP DP  RH WIND       PRES   REMARKS
COLO. SPRINGS  CLOUDY    52  46  80 N15       30.32R THUNDER
A. F. ACADEMY  LGT RAIN  50  46  87 N14       30.33R
ELLICOTT       CLOUDY   N/A N/A N/A N13       30.29R
FALCON         CLOUDY    49  43  80 N16G22    30.34S
FORT CARSON    TSTM      51  48  89 N12       30.29S
LIMON          CLOUDY    49  44  83 N13       30.28S
MONUMENT HILL  CLOUDY    45  43  93 MISG      30.36S
TRINIDAD       MOCLDY    50  46  86 S7        30.28R
$$

COZ042>045-048>051-090-091-300400-
...NORTHEAST COLORADO...

CITY           SKY/WX    TMP DP  RH WIND       PRES   REMARKS
GREELEY ARPT   CLOUDY    52  46  82 NE6       30.31R
AKRON          CLOUDY    48  44  86 N16       30.28S
BURLINGTON     MOCLDY    53  46  77 N16       30.24R
WRAY           MOCLDY    52  48  86 N12       30.25S
STERLING       CLOUDY    50  46  87 NE9       30.29R
HOLYOKE        MOCLDY    54  48  82 N10       30.27S
FORT MORGAN    CLEAR     49  44  83 N7        30.31R
$$

COZ086-089-092>099-300400-
...SOUTHEAST COLORADO...

CITY           SKY/WX    TMP DP  RH WIND       PRES   REMARKS
PUEBLO         CLOUDY    59  47  64 NE22      30.22R
LA JUNTA       CLOUDY    63  46  54 NE23G30   30.19S
LAMAR          CLOUDY    60  51  72 NE13G23   30.18R
SPRINGFIELD      N/A     58  51  78 NE18G24   30.21R
$$



USA.gov is the U.S. government's official web portal to all federal, state and local government web resources and services.